Location: Baia Mare
(47.6567°N, 23.5850°E)
Time: 14:40:14
(UTC+03:00)

ISS - Pass Details

Date: 30 July 2019
Orbit: 409 x 418 km, 51.6° (Epoch: 21 July)

Event Time Altitude Azimuth Distance (km) Brightness Sun altitude
Rises 22:15:51 0° 293° (WNW) 2,357 1.6 -10.7°
Reaches altitude 10° 22:17:58 10° 295° (WNW) 1,491 0.3 -10.9°
Maximum altitude 22:21:18 78° 22° (NNE) 428 -3.7 -11.3°
Enters shadow 22:23:47 17° 108° (ESE) 1,140 -2.1 -11.6°
